Weather History for Linden, NJ

Change the Weather History Date:

Friday, January 18, 2013

  Actual Average (KEWR) Record (KEWR)
Temperature  
Mean Temperature 34 °F 31 °F  
Max Temperature 37 °F 38 °F 66 °F (1990)
Min Temperature 29 °F 24 °F -7 °F (1982)
Degree Days  
Heating Degree Days 32 34  
Month to date heating degree days 602  
Since 1 July heating degree days 2352  
Cooling Degree Days 0 0  
Month to date cooling degree days 0  
Year to date cooling degree days 0  
Moisture  
Dew Point 12 °F    
Average Humidity 45    
Maximum Humidity 61    
Minimum Humidity 31    
Precipitation  
Precipitation 0.00 in 0.12 in 0.92 in (2011)
Month to date precipitation 2.13  
Year to date precipitation 2.13  
Snow  
Snow 0.00 in 0.20 in 2.90 in (1984)
Month to date snowfall 4.5  
Since 1 July snowfall 10.3  
Snow Depth -    
Sea Level Pressure  
Sea Level Pressure 30.34 in    
Wind  
Wind Speed 8 mph (NW)    
Max Wind Speed 20 mph    
Max Gust Speed 31 mph    
Visibility 10 miles    
Events      
T = Trace of Precipitation, MM = Missing Value Source: NWS Daily Summary

Daily Weather History Graph

Daily Weather History Graph

Search for Another Location

Airport:

Trip Planner

Search our weather history database for the weather conditions in past years. The results will help you decide how hot, cold, wet, or windy it might be!

Date:

Astronomy

Jan. 18, 2013 Rise Set
Actual Time 7:17 AM EST 4:58 PM EST
Civil Twilight 6:47 AM EST 5:28 PM EST
Nautical Twilight 6:13 AM EST 6:01 PM EST
Astronomical Twilight 5:41 AM EST 6:34 PM EST
Moon 10:51 AM EST (1/18) No Moon Set
Length of Visible Light 10h 40m
Length of Day
9h 41m
Waxing Crescent, 47% of the Moon is Illuminated
Jan 18
Waxing Crescent
Jan 18
First Quarter
Jan 26
Full
Feb 3
Last Quarter
Feb 10
New

Hourly Weather History & Observations

Time (EST) Temp. Windchill Dew Point Humidity Pressure Visibility Wind Dir Wind Speed Gust Speed Precip Events Conditions
12:15 AM 38.3 °F 35.9 °F 24.3 °F 57% 30.03 in 10.0 mi NNE 3.5 mph - N/A   Overcast
12:55 AM 37.9 °F 35.5 °F 23.9 °F 57% 30.04 in 10.0 mi NNE 3.5 mph - N/A   Overcast
1:15 AM 37.8 °F 32.5 °F 25.5 °F 61% 30.04 in 10.0 mi NNE 6.9 mph - N/A   Overcast
1:35 AM 36.9 °F 30.7 °F 23.9 °F 59% 30.06 in 10.0 mi NNE 8.1 mph - N/A   Overcast
1:55 AM 36.0 °F 29.0 °F 23.4 °F 60% 30.07 in 10.0 mi NE 9.2 mph - N/A   Overcast
2:15 AM 35.6 °F 28.6 °F 22.5 °F 59% 30.08 in 10.0 mi NNE 9.2 mph - N/A   Overcast
2:55 AM 34.2 °F 28.2 °F 20.7 °F 58% 30.10 in 10.0 mi NNE 6.9 mph - N/A   Overcast
3:15 AM 33.6 °F 26.2 °F 19.9 °F 57% 30.10 in 10.0 mi NNE 9.2 mph - N/A   Overcast
3:35 AM 32.9 °F 24.1 °F 19.4 °F 58% 30.10 in 10.0 mi NNE 11.5 mph - N/A   Overcast
3:55 AM 32.4 °F 26.9 °F 19.8 °F 60% 30.10 in 10.0 mi NNE 5.8 mph - N/A   Overcast
4:15 AM 32.0 °F 26.4 °F 19.0 °F 59% 30.11 in 10.0 mi North 5.8 mph - N/A   Mostly Cloudy
4:35 AM 32.0 °F 28.7 °F 18.7 °F 58% 30.12 in 10.0 mi NNE 3.5 mph - N/A   Scattered Clouds
4:55 AM 32.0 °F 28.7 °F 19.6 °F 60% 30.14 in 10.0 mi North 3.5 mph - N/A   Mostly Cloudy
5:15 AM 32.0 °F 25.6 °F 19.4 °F 60% 30.16 in 10.0 mi North 6.9 mph - N/A   Overcast
5:35 AM 32.0 °F 24.2 °F 19.4 °F 60% 30.18 in 10.0 mi North 9.2 mph - N/A   Overcast
5:55 AM 32.0 °F 24.8 °F 18.9 °F 58% 30.20 in 10.0 mi North 8.1 mph - N/A   Overcast
6:15 AM 32.0 °F 24.8 °F 18.9 °F 58% 30.22 in 10.0 mi North 8.1 mph - N/A   Overcast
6:35 AM 32.0 °F 24.8 °F 18.9 °F 58% 30.23 in 10.0 mi North 8.1 mph - N/A   Overcast
6:55 AM 31.5 °F 21.4 °F 18.1 °F 58% 30.25 in 10.0 mi NNW 13.8 mph 18.4 mph N/A   Overcast
7:15 AM 31.3 °F 21.6 °F 16.9 °F 55% 30.27 in 10.0 mi NNW 12.7 mph 20.7 mph N/A   Mostly Cloudy
7:35 AM 31.1 °F 20.9 °F 14.5 °F 50% 30.29 in 10.0 mi NNW 13.8 mph 24.2 mph N/A   Mostly Cloudy
7:55 AM 30.2 °F 19.3 °F 12.0 °F 47% 30.31 in 10.0 mi NW 15.0 mph 23.0 mph N/A   Scattered Clouds
8:15 AM 29.8 °F 17.3 °F 11.3 °F 46% 30.33 in 10.0 mi NNW 19.6 mph 31.1 mph N/A   Clear
8:35 AM 29.8 °F 19.8 °F 9.9 °F 43% 30.35 in 10.0 mi NW 12.7 mph 23.0 mph N/A   Clear
8:55 AM 29.7 °F 18.2 °F 9.9 °F 44% 30.37 in 10.0 mi WNW 16.1 mph 25.3 mph N/A   Clear
9:15 AM 30.2 °F 20.2 °F 10.2 °F 43% 30.39 in 10.0 mi NW 12.7 mph 18.4 mph N/A   Clear
9:55 AM 30.6 °F 20.2 °F 8.1 °F 39% 30.43 in 10.0 mi NW 13.8 mph 24.2 mph N/A   Clear
10:15 AM 30.7 °F 21.4 °F 8.4 °F 39% 30.44 in 10.0 mi NW 11.5 mph 20.7 mph N/A   Clear
10:35 AM 31.1 °F 21.4 °F 7.7 °F 37% 30.45 in 10.0 mi NNW 12.7 mph 19.6 mph N/A   Clear
10:55 AM 31.3 °F 21.6 °F 9.5 °F 40% 30.45 in 10.0 mi NW 12.7 mph 21.9 mph N/A   Mostly Cloudy
11:15 AM 31.6 °F 20.7 °F 9.1 °F 39% 30.44 in 10.0 mi WNW 16.1 mph 21.9 mph N/A   Mostly Cloudy
11:35 AM 31.6 °F 21.6 °F 8.1 °F 37% 30.44 in 10.0 mi NNW 13.8 mph 24.2 mph N/A   Scattered Clouds
11:55 AM 31.8 °F 21.8 °F 9.0 °F 38% 30.44 in 10.0 mi WNW 13.8 mph 20.7 mph N/A   Scattered Clouds
12:15 PM 31.6 °F 22.6 °F 7.5 °F 36% 30.44 in 10.0 mi NW 11.5 mph 16.1 mph N/A   Scattered Clouds
12:55 PM 31.8 °F 23.9 °F 6.4 °F 34% 30.43 in 10.0 mi WNW 9.2 mph - N/A   Clear
1:15 PM 32.2 °F 22.7 °F 7.5 °F 36% 30.42 in 10.0 mi NW 12.7 mph 17.3 mph N/A   Clear
1:35 PM 32.2 °F 24.4 °F 6.4 °F 34% 30.44 in 10.0 mi NNW 9.2 mph 16.1 mph N/A   Clear
1:55 PM 32.2 °F 23.8 °F 5.2 °F 32% 30.44 in 10.0 mi NW 10.4 mph 18.4 mph N/A   Clear
2:15 PM 32.5 °F 26.2 °F 5.9 °F 33% 30.44 in 10.0 mi NNW 6.9 mph - N/A   Clear
2:35 PM 32.2 °F 23.8 °F 6.3 °F 34% 30.43 in 10.0 mi WNW 10.4 mph - N/A   Clear
2:55 PM 32.4 °F 26.0 °F 5.0 °F 32% 30.44 in 10.0 mi NW 6.9 mph - N/A   Clear
3:15 PM 32.4 °F 24.0 °F 4.5 °F 31% 30.45 in 10.0 mi NNW 10.4 mph - N/A   Clear
3:35 PM 32.2 °F 24.4 °F 4.8 °F 32% 30.45 in 10.0 mi WNW 9.2 mph - N/A   Clear
3:55 PM 32.0 °F 26.4 °F 4.6 °F 32% 30.45 in 10.0 mi WNW 5.8 mph - N/A   Clear
4:15 PM 32.0 °F 24.2 °F 4.6 °F 32% 30.46 in 10.0 mi WNW 9.2 mph - N/A   Clear
4:35 PM 31.5 °F 26.8 °F 5.7 °F 34% 30.46 in 10.0 mi WNW 4.6 mph - N/A   Clear
5:15 PM 31.1 °F 23.7 °F 5.4 °F 34% 30.47 in 10.0 mi West 8.1 mph - N/A   Clear
5:35 PM 31.1 °F 25.4 °F 5.0 °F 33% 30.48 in 10.0 mi West 5.8 mph - N/A   Clear
5:55 PM 30.9 °F 26.2 °F 4.5 °F 33% 30.49 in 10.0 mi WSW 4.6 mph - N/A   Clear
6:15 PM 30.9 °F - 5.0 °F 33% 30.49 in 10.0 mi Calm Calm - N/A   Clear
6:55 PM 30.4 °F - 5.9 °F 36% 30.50 in 10.0 mi Calm Calm - N/A   Clear
7:15 PM 30.0 °F - 7.2 °F 38% 30.50 in 10.0 mi Calm Calm - N/A   Clear
7:35 PM 30.0 °F 26.5 °F 6.8 °F 38% 30.50 in 10.0 mi South 3.5 mph - N/A   Clear
7:55 PM 30.0 °F - 6.8 °F 38% 30.50 in 10.0 mi Calm Calm - N/A   Clear
8:15 PM 30.2 °F 25.4 °F 7.5 °F 39% 30.49 in 10.0 mi South 4.6 mph - N/A   Clear
8:35 PM 30.2 °F 25.4 °F 7.9 °F 39% 30.48 in 10.0 mi South 4.6 mph - N/A   Clear
9:15 PM 29.8 °F 26.3 °F 8.2 °F 40% 30.47 in 10.0 mi South 3.5 mph - N/A   Clear
9:35 PM 29.5 °F - 9.1 °F 43% 30.48 in 10.0 mi Calm Calm - N/A   Clear
10:15 PM 29.3 °F 25.6 °F 10.0 °F 45% 30.47 in 10.0 mi South 3.5 mph - N/A   Clear
10:35 PM 29.3 °F 25.6 °F 10.4 °F 45% 30.46 in 10.0 mi SSW 3.5 mph - N/A   Clear
10:55 PM 29.3 °F 24.3 °F 10.4 °F 45% 30.45 in 10.0 mi SSW 4.6 mph - N/A   Clear
11:15 PM 29.3 °F 24.3 °F 10.4 °F 45% 30.44 in 10.0 mi South 4.6 mph - N/A   Clear
11:35 PM 29.3 °F 23.2 °F 10.9 °F 46% 30.43 in 10.0 mi South 5.8 mph - N/A   Clear
11:55 PM 29.8 °F 24.9 °F 11.3 °F 46% 30.41 in 10.0 mi South 4.6 mph - N/A   Clear